Simultaneous Nadir Overpasses (SNOs) Predictions

Prediction of SNOs between LANDSAT-8 and METOP-B Satellite Orbit:

Table of predicted SNOs for the next 14.0 days since TLE Epoch: 2/6/2015
Index Date (LANDSAT-8) Time (LANDSAT-8) Lat,Lon (LANDSAT-8) SZA (LANDSAT-8 ) Date (METOP-B) Time (METOP-B) Lat,Lon (METOP-B) SZA (METOP-B ) Distance(km) Time Diff (sec)
1 02/06/2015 19:40:40 -81.04, 103.19 81.92 02/06/2015 19:39:57 -81.05, 103.34 81.92 2.77 43
2 02/06/2015 20:30:05 81.07, -88.80 98.12 02/06/2015 20:30:37 81.06, -88.90 98.12 1.86 32
3 02/09/2015 15:14:53 -81.05, 169.71 82.80 02/09/2015 15:14:19 -81.05, 169.78 82.81 1.18 34
4 02/09/2015 16:04:18 81.07, -22.29 97.25 02/09/2015 16:04:58 81.08, -22.10 97.28 3.29 40
5 02/12/2015 10:49:05 -81.04,-123.96 83.73 02/12/2015 10:48:40 -81.05,-123.83 83.73 2.37 25
6 02/12/2015 11:38:30 81.06, 44.02 96.31 02/12/2015 11:39:20 81.06, 43.90 96.32 2.07 50
7 02/15/2015 06:23:17 -81.04, -57.49 84.68 02/15/2015 06:23:02 -81.04, -57.50 84.68 0.23 15
8 02/15/2015 07:12:42 81.06, 110.47 95.36 02/15/2015 07:13:41 81.07, 110.58 95.40 2.06 59
9 02/18/2015 01:57:28 -81.05, 9.12 85.62 02/18/2015 01:57:23 -81.05, 9.14 85.62 0.30 5




NCC Satellite Simultaneous Nadir Overpasses (SNOs) Prediction Service
